Regional Weather Roundup
Issued by NWS

Home | Current Version | Previous Version | Text Only | Print | Product List | Glossary Off
Versions: 1 2 3 4 5 6 7 8 9 10 11 12 13 14 15 16 17 18 19 20 21 22 23 24 25 26 27 28 29 30 31 32 33 34 35 36 37 38 39 40 41 42 43 44 45 46 47 48 49 50

000
ASUS43 KLOT 230900
RWRIL

ILLINOIS REGIONAL WEATHER ROUNDUP
NATIONAL WEATHER SERVICE CHICAGO/ROMEOVILLE IL
400 AM CDT THU OCT 23 2014

NOTE: "FAIR" INDICATES FEW OR NO CLOUDS BELOW 12,000 FEET WITH NO
SIGNIFICANT WEATHER AND/OR OBSTRUCTIONS TO VISIBILITY.

* THESE STATIONS ARE NOT UNDER NWS QUALITY CONTROL. THEY ALSO MAY NOT
  REPORT WEATHER SUCH AS PRECIPITATION OR FOG.

ILZ001-002-007-009-015-016-024-231000-
NORTHWEST ILLINOIS

CITY           SKY/WX    TMP DP  RH WIND       PRES   REMARKS
MOLINE         PTCLDY    41  35  79 SE3       30.16F
STERLING*      CLEAR     34  30  86 SE3       30.19F
$$

ILZ003-004-008-010-011-017-018-231000-
NORTH CENTRAL ILLINOIS

CITY           SKY/WX    TMP DP  RH WIND       PRES   REMARKS
ROCKFORD       CLEAR     38  34  85 S6        30.22S WCI  33
$$

ILZ005-006-012>014-019>023-231000-
NORTHEAST ILLINOIS

CITY           SKY/WX    TMP DP  RH WIND       PRES   REMARKS
CHICAGO-OHARE  CLEAR     37  35  92 S6        30.22F WCI  32
CHICAGO-MIDWAY CLEAR     43  38  82 S7        30.23F
AURORA         CLEAR     37  33  85 SE3       30.22F FOG
WAUKEGAN       CLEAR     39  36  89 S6        30.22F WCI  35
DUPAGE AIRPORT CLEAR     36  34  92 S5        30.21F WCI  32
WHEELING       CLEAR     37  33  85 CALM      30.24F
NORTHERLY ISL    N/A     43  38  82 S5          N/A
$$

LMZ740>746-231000-
SOUTHERN LAKE MICHIGAN

STATION/POSITION SKY/WX   TEMP    WIND        PRES    VSBY  WAVE
                          AIR SEA DIR/SP/G                  HT/PER
                          (F)     (DEG/KT/KT) (MB)    (MI)  (FT/S)
SOUTHERN BUOY              50 54  170/ 12/ 14 1024.5F
WAUKEGAN HARBOR            46     190/ 12/ 13   N/A
HARRISON CRIB              47     180/ 13/ 16   N/A
BURNHAM HARBOR             43     170/  4/  9   N/A
CALUMET HARBOR             42     170/  6/  8 1022.8F
MICHIGAN CITY              42     130/ 10/ 11   N/A
$$

ILZ025>027-034>036-040-047-049-050-058-095>099-231000-
WEST-CENTRAL ILLINOIS

CITY           SKY/WX    TMP DP  RH WIND       PRES   REMARKS
QUINCY         CLEAR     48  40  73 S12       30.16F
$$

ILZ028>032-037-038-041>044-048-051>054-059>061-231000-
CENTRAL ILLINOIS

CITY           SKY/WX    TMP DP  RH WIND       PRES   REMARKS
DECATUR        CLEAR     35  33  92 CALM      30.23S
PEORIA         CLEAR     44  36  73 SE7       30.20F
SPRINGFIELD    CLEAR     38  35  89 CALM      30.21F
TAYLORVILLE    NOT AVBL
$$

ILZ033-039-045-046-055>057-062-063-231000-
EAST-CENTRAL ILLINOIS

CITY           SKY/WX    TMP DP  RH WIND       PRES   REMARKS
CHAMPAIGN      CLEAR     37  34  89 SE6       30.23F WCI  32
MATTOON        CLEAR     41  38  89 CALM      30.22S
$$

ILZ079-100>102-231000-
SOUTHWEST ILLINOIS

CITY           SKY/WX    TMP DP  RH WIND       PRES   REMARKS
BELLEVILLE     CLEAR     38  38  99 CALM      30.21F FOG
CAHOKIA*       CLEAR     38  37  97 W3        30.21F
$$

ILZ064>066-069>071-074>076-080>082-084>086-088>090-092>094-231000-
SOUTH-CENTRAL ILLINOIS

CITY           SKY/WX    TMP DP  RH WIND       PRES   REMARKS
CARBONDALE     FOG       35  34  96 NW3       30.22F VSB 1/2
MT. VERNON     CLEAR     34  28  80 CALM      30.22F
$$

ILZ067-068-072-073-078-083-087-091-231000-
SOUTHEAST ILLINOIS

CITY           SKY/WX    TMP DP  RH WIND       PRES   REMARKS
LAWRENCEVILLE  CLEAR     37  36  96 NE3       30.25F
$$

ABBREVIATIONS USED IN REMARKS
   TC - TEMPERATURE IN CELSIUS
  WCI - WIND CHILL INDEX
   HX - HEAT INDEX
  VSB - VISIBILITY
$$




USA.gov is the U.S. government's official web portal to all federal, state and local government web resources and services.